Terminal Aerodrome Forecast
Issued by NWS Boston, MA

Home | Current Version | Previous Version | Text Only | Print | Product List | Glossary On
Versions: 1 2 3 4 5 6 7 8 9 10 11 12 13 14 15 16 17 18 19 20 21 22 23 24 25 26 27 28 29 30 31 32 33 34 35 36 37 38 39 40
000
FTUS41 KBOX 200818 AAA
TAFBDL
TAF AMD
KBDL 200818Z 2008/2112 VRB03KT P6SM FEW250
     FM201900 17004KT P6SM SCT250
     FM210100 17005KT P6SM SCT080
     FM210500 VRB03KT P6SM BKN060=

USA.gov is the U.S. government's official web portal to all federal, state and local government web resources and services.